Location: Jangalapalle
(16.8036°N, 80.6370°E)
Time: 11:16:57
(UTC+00:00)

ATLAS 3B R/B - Pass Details

Date: 05 August 2024
Orbit: 940 x 1254 km, 63.8° (Epoch: 08 September)

Event Time Altitude Azimuth Distance (km) Brightness Sun altitude
Rises 22:19:34 0° 338° (NNW) 4,190 5.9 -27.1°
Reaches altitude 10° 22:22:25 10° 340° (NNW) 3,209 5.3 -26.5°
Maximum altitude 22:30:11 76° 65° (ENE) 1,238 3.0 -24.9°
Drops below altitude 10° 22:37:31 10° 151° (SSE) 3,035 5.1 -23.3°
Sets 22:40:07 0° 152° (SSE) 3,952 5.7 -22.8°
